EW8328 Weather Reports


time (UTC)temp
C
wind
direction
speed
KPH
gust
KPH
rain 1hr
cm
rain 24hr
cm
rain mn
cm
humidity
%
barometer
mb
20260505065854 6 306 1.6 4.8 0.00 0.00 0.00 87 1014.2
20260505065354 6 306 1.6 3.2 0.00 0.00 0.00 87 1014.3
20260505064354 6 303 1.6 3.2 0.00 0.00 0.00 87 1014.4
20260505063854 6 303 1.6 4.8 0.00 0.00 0.00 88 1014.3
20260505063354 6 303 0.0 1.6 0.00 0.00 0.00 88 1014.3
20260505062854 5 303 1.6 3.2 0.00 0.00 0.00 88 1014.3
20260505062354 5 303 0.0 4.8 0.00 0.00 0.00 88 1014.3
20260505061855 5 299 1.6 3.2 0.00 0.00 0.00 89 1014.3
20260505061354 5 248 1.6 4.8 0.00 0.00 0.00 89 1014.2
20260505055354 5 322 1.6 3.2 0.00 0.00 0.00 89 1014.1
20260505054854 5 322 1.6 1.6 0.00 0.00 0.00 89 1014.1
20260505053854 4 322 1.6 1.6 0.00 0.00 0.00 90 1014.1
20260505053354 4 322 1.6 1.6 0.00 0.00 0.00 90 1014.0
20260505052854 4 322 1.6 3.2 0.00 0.00 0.00 90 1014.0
20260505052354 4 322 1.6 1.6 0.00 0.00 0.00 90 1013.9
20260505051855 4 322 1.6 1.6 0.00 0.00 0.00 90 1013.9
20260505051354 4 322 1.6 3.2 0.00 0.00 0.00 90 1013.9
20260505050354 4 322 1.6 3.2 0.00 0.00 0.00 90 1013.9
20260505041354 4 325 1.6 3.2 0.00 0.00 0.00 91 1013.5
20260505040855 4 333 0.0 3.2 0.00 0.00 0.00 90 1013.6
20260505040354 4 333 0.0 3.2 0.00 0.00 0.00 90 1013.6
20260505035855 4 333 0.0 3.2 0.00 0.00 0.00 89 1013.5
20260505035353 4 333 0.0 1.6 0.00 0.00 0.00 90 1013.5
20260505034854 5 333 1.6 1.6 0.00 0.00 0.00 90 1013.5
20260505034355 5 333 0.0 3.2 0.00 0.00 0.00 90 1013.6
20260505033854 5 315 1.6 3.2 0.00 0.00 0.00 90 1013.5
20260505033354 5 305 0.0 3.2 0.00 0.00 0.00 90 1013.5
20260505032854 5 305 1.6 3.2 0.00 0.00 0.00 90 1013.4
20260505032355 5 314 1.6 4.8 0.00 0.00 0.00 90 1013.5
20260505031854 5 319 1.6 3.2 0.00 0.00 0.00 90 1013.5
20260505031354 5 323 1.6 4.8 0.00 0.00 0.00 89 1013.6
20260505030354 5 293 1.6 1.6 0.00 0.00 0.00 89 1013.6
20260505025854 5 302 1.6 4.8 0.00 0.00 0.00 89 1013.6
20260505025354 5 304 1.6 3.2 0.00 0.00 0.00 89 1013.7
20260505024854 5 296 3.2 4.8 0.00 0.00 0.00 89 1013.7
20260505024354 5 288 3.2 4.8 0.00 0.00 0.00 89 1013.7
20260505023854 5 320 1.6 4.8 0.00 0.00 0.00 88 1013.6
20260505022854 5 259 1.6 3.2 0.00 0.00 0.00 88 1013.6
20260505022354 5 259 1.6 4.8 0.00 0.00 0.00 87 1013.7
20260505021854 5 248 0.0 1.6 0.00 0.00 0.00 87 1013.6
20260505021354 5 269 1.6 4.8 0.00 0.00 0.00 88 1013.6
20260505015855 6 296 1.6 4.8 0.00 0.00 0.00 87 1013.7
20260505014354 6 252 1.6 4.8 0.00 0.00 0.00 86 1013.8
20260505013856 6 239 1.6 3.2 0.00 0.00 0.00 86 1013.8
20260505013354 6 287 1.6 4.8 0.00 0.00 0.00 86 1013.8
20260505012855 6 272 1.6 3.2 0.00 0.00 0.00 86 1013.9
20260505012353 6 301 3.2 8.0 0.00 0.00 0.00 86 1013.9
20260505011854 6 308 1.6 3.2 0.00 0.00 0.00 85 1014.0
20260505011353 6 296 1.6 4.8 0.00 0.00 0.00 85 1014.0
20260505010854 6 244 3.2 4.8 0.00 0.00 0.00 85 1014.0
20260505010354 6 245 1.6 4.8 0.00 0.00 0.00 84 1014.0
20260505005854 6 274 0.0 3.2 0.00 0.00 0.00 84 1013.9
20260505005354 6 301 0.0 3.2 0.00 0.00 0.00 84 1013.9
20260505004854 6 301 1.6 4.8 0.00 0.00 0.00 84 1014.0
20260505003354 6 306 1.6 3.2 0.00 0.00 0.00 83 1014.1
20260505002854 6 306 1.6 3.2 0.00 0.00 0.00 83 1014.1
20260505002354 6 311 3.2 12.9 0.00 0.00 0.00 83 1014.1
20260505001854 6 300 3.2 8.0 0.00 0.00 0.00 83 1014.2
20260505001353 7 293 1.6 4.8 0.00 0.00 0.00 83 1014.2
20260505000854 7 321 1.6 4.8 0.00 0.00 0.00 83 1014.2
20260504235354 7 304 3.2 4.8 0.00 0.00 0.00 84 1014.2
20260504234854 7 325 1.6 4.8 0.00 0.00 0.00 84 1014.3
20260504234354 6 300 1.6 4.8 0.00 0.00 0.00 83 1014.3
20260504233354 7 309 1.6 3.2 0.00 0.00 0.00 83 1014.3
20260504232854 7 309 1.6 4.8 0.00 0.00 0.00 83 1014.3
20260504232353 7 308 1.6 4.8 0.00 0.00 0.00 83 1014.2
20260504231854 7 302 1.6 4.8 0.00 0.00 0.00 84 1014.2
20260504231354 7 292 0.0 3.2 0.00 0.00 0.00 84 1014.3
20260504230937 7 303 1.6 4.8 0.00 0.00 0.00 84 1014.3
20260504225354 7 304 1.6 4.8 0.00 0.00 0.00 85 1014.3
20260504224854 7 238 1.6 4.8 0.00 0.00 0.00 84 1014.3
20260504224354 7 252 1.6 4.8 0.00 0.00 0.00 85 1014.3
20260504223354 7 252 3.2 4.8 0.00 0.00 0.00 85 1014.4
20260504222354 7 277 1.6 4.8 0.00 0.00 0.00 85 1014.6
20260504221854 7 248 1.6 4.8 0.00 0.00 0.00 84 1014.6
20260504221354 7 248 1.6 4.8 0.00 0.00 0.00 84 1014.6
20260504220854 7 231 1.6 4.8 0.00 0.00 0.00 84 1014.6
20260504215853 8 305 1.6 4.8 0.00 0.00 0.00 84 1014.6
20260504215354 8 314 1.6 4.8 0.00 0.00 0.00 83 1014.5
20260504214853 8 304 1.6 4.8 0.00 0.00 0.00 83 1014.5
20260504214354 8 273 1.6 4.8 0.00 0.00 0.00 83 1014.5
20260504213353 8 272 1.6 4.8 0.00 0.00 0.00 83 1014.5
20260504212854 8 270 1.6 4.8 0.00 0.00 0.00 83 1014.6
20260504212354 8 270 1.6 4.8 0.00 0.00 0.00 83 1014.6
20260504211854 8 270 1.6 4.8 0.00 0.00 0.00 83 1014.7
20260504211354 8 270 1.6 3.2 0.00 0.00 0.00 83 1014.7
20260504210853 9 270 1.6 4.8 0.00 0.00 0.00 83 1014.7
20260504210354 9 275 1.6 3.2 0.00 0.00 0.00 83 1014.7
20260504205853 9 275 1.6 3.2 0.00 0.00 0.00 83 1014.7
20260504205354 9 275 1.6 3.2 0.00 0.00 0.00 83 1014.7
20260504204854 9 275 1.6 4.8 0.00 0.00 0.00 83 1014.7
20260504204354 10 275 0.0 4.8 0.00 0.00 0.00 82 1014.7
20260504203853 10 275 0.0 3.2 0.00 0.00 0.00 82 1014.7
20260504203355 10 275 0.0 3.2 0.00 0.00 0.00 82 1014.6
20260504202353 10 275 1.6 4.8 0.00 0.00 0.00 82 1014.6
20260504201854 10 245 1.6 4.8 0.00 0.00 0.00 82 1014.6
20260504201354 10 286 1.6 4.8 0.00 0.00 0.00 82 1014.6
20260504200854 10 270 3.2 4.8 0.00 0.00 0.00 82 1014.6
20260504200354 10 266 1.6 4.8 0.00 0.00 0.00 82 1014.6
20260504195354 10 236 1.6 4.8 0.00 0.00 0.00 81 1014.5
20260504194854 10 236 3.2 4.8 0.00 0.00 0.00 81 1014.5
20260504194354 10 247 3.2 4.8 0.00 0.00 0.00 81 1014.4
20260504193854 11 270 1.6 4.8 0.00 0.00 0.00 81 1014.3
20260504192854 11 264 3.2 9.7 0.00 0.00 0.00 79 1014.3
20260504192353 11 289 1.6 9.7 0.00 0.00 0.00 79 1014.2
20260504191854 11 293 3.2 9.7 0.00 0.00 0.00 78 1014.1
20260504191354 11 266 3.2 11.3 0.00 0.00 0.00 78 1014.1
20260504190854 11 278 3.2 11.3 0.00 0.00 0.00 77 1014.0
20260504190354 12 288 3.2 11.3 0.00 0.00 0.00 77 1014.1
20260504185854 12 279 4.8 9.7 0.00 0.00 0.00 77 1014.0
20260504185354 12 282 4.8 11.3 0.00 0.00 0.00 77 1014.0
20260504184854 12 275 3.2 11.3 0.00 0.00 0.00 77 1014.0
20260504184353 12 281 3.2 4.8 0.00 0.00 0.00 77 1014.1
20260504183854 12 300 3.2 4.8 0.00 0.00 0.00 77 1014.0
20260504183353 12 299 3.2 11.3 0.00 0.00 0.00 77 1014.0
20260504181853 12 239 1.6 4.8 0.00 0.00 0.00 78 1013.9
20260504181353 12 236 1.6 3.2 0.00 0.00 0.00 78 1013.9
20260504180854 12 212 0.0 1.6 0.00 0.00 0.00 78 1013.9
20260504180353 12 212 1.6 3.2 0.00 0.00 0.00 78 1013.9
20260504175854 12 212 0.0 1.6 0.00 0.00 0.00 78 1013.9
20260504175354 12 212 1.6 3.2 0.00 0.00 0.00 78 1013.9
20260504174853 12 212 0.0 3.2 0.00 0.00 0.00 78 1013.9
20260504174354 12 212 0.0 3.2 0.00 0.00 0.00 78 1013.9
20260504173854 12 212 0.0 3.2 0.00 0.00 0.00 77 1013.9
20260504172854 12 269 0.0 3.2 0.00 0.00 0.00 78 1013.9
20260504172353 12 269 0.0 3.2 0.00 0.00 0.00 78 1013.9
20260504171854 12 281 1.6 4.8 0.00 0.00 0.00 78 1013.9
20260504171354 12 325 0.0 1.6 0.00 0.00 0.00 78 1014.0
20260504170853 12 325 1.6 3.2 0.00 0.00 0.00 78 1014.0
20260504170353 12 325 0.0 3.2 0.00 0.00 0.00 78 1014.0
20260504160353 14 203 3.2 4.8 0.00 0.00 0.00 68 1014.1
20260504150853 15 173 8.0 12.9 0.00 0.00 0.00 65 1014.3
20260504150353 14 169 3.2 11.3 0.00 0.00 0.00 66 1014.4
20260504140854 13 209 3.2 9.7 0.00 0.00 0.00 68 1014.7
20260504140353 13 242 1.6 3.2 0.00 0.00 0.00 68 1014.8
20260504130353 13 215 1.6 4.8 0.00 0.00 0.00 71 1015.1
20260504110354 11 168 4.8 9.7 0.00 0.08 0.00 76 1015.3
20260504081853 8 94 3.2 8.0 0.00 0.15 0.00 87 1015.2
20260504081353 8 92 1.6 4.8 0.00 0.18 0.00 87 1015.2
20260504080853 8 92 3.2 9.7 0.00 0.18 0.00 88 1015.2
20260504080353 8 85 3.2 9.7 0.00 0.18 0.00 88 1015.1